Hourly Data Report for August 15, 2018

TORONTO CITY
ONTARIO
Current Station Operator: ECCC - MSC

43°40'00.000" N
79°24'00.000" W
112.50 m
6158355
71508
XTO

Download Data

Hourly Data (August 2018)
Hourly Data Report for August 15, 2018
TIME
LST
Temp Definition
°C
Dew Point Definition
°C
Rel Hum Definition
%
Precip. Amount Definition
mm

Wind Dir Definition
10's deg

Wind Spd Definition
km/h
Visibility Definition
km
Stn Press Definition
kPa
Hmdx Definition


Wind Chill Definition


Weather Definition


00:00 22.9 14.9 61 0.0 LegendMM LegendMM   99.86 27   LegendNANA
01:00 21.9 15.4 66 0.0 LegendMM LegendMM   99.83 26   LegendNANA
02:00 22.0 15.6 67 0.0 LegendMM LegendMM   99.83 26   LegendNANA
03:00 22.2 15.7 67 0.0 LegendMM LegendMM   99.82 27   LegendNANA
04:00 22.2 15.9 68 0.0 LegendMM LegendMM   99.83 27   LegendNANA
05:00 21.3 15.9 72 0.0 LegendMM LegendMM   99.84 26   LegendNANA
06:00 21.2 16.6 75 0.0 LegendMM LegendMM   99.87 26   LegendNANA
07:00 23.9 17.4 67 0.0 LegendMM LegendMM   99.92 29   LegendNANA
08:00 26.2 17.3 58 0.0 LegendMM LegendMM   99.96 32   LegendNANA
09:00 27.5 17.4 54 0.0 LegendMM LegendMM   99.97 33   LegendNANA
10:00 29.5 16.1 44 0.0 LegendMM LegendMM   99.99 34   LegendNANA
11:00 31.2 16.2 40 0.0 LegendMM LegendMM   99.99 36   LegendNANA
12:00 30.8 15.3 39 0.0 LegendMM LegendMM   99.98 35   LegendNANA
13:00 30.9 15.2 39 0.0 LegendMM LegendMM   100.00 35   LegendNANA
14:00 31.6 14.1 35 0.0 LegendMM LegendMM   100.00 35   LegendNANA
15:00 31.2 14.7 37 0.0 LegendMM LegendMM   99.96 35   LegendNANA
16:00 31.0 13.2 34 0.0 LegendMM LegendMM   99.94 34   LegendNANA
17:00 30.5 14.0 37 0.0 LegendMM LegendMM   99.94 34   LegendNANA
18:00 29.9 14.5 39 0.0 LegendMM LegendMM   99.95 34   LegendNANA
19:00 28.5 15.6 46 0.0 LegendMM LegendMM   100.03 33   LegendNANA
20:00 27.9 16.2 49 0.0 LegendMM LegendMM   100.10 33   LegendNANA
21:00 27.3 16.3 51 0.0 LegendMM LegendMM   100.16 32   LegendNANA
22:00 26.0 16.3 55 0.0 LegendMM LegendMM   100.16 31   LegendNANA
23:00 25.5 17.1 60 0.0 LegendMM LegendMM   100.18 31   LegendNANA

Notes on Data Quality.

Legend

  • E = Estimated
  • M = Missing
  • NA = Not Available*
  • [empty] = Indicates an unobserved value
Date modified: